Location: Asheville, NC
(35.6000°N, 82.5500°W)
Time: 21:55:05
(UTC-04:00)

POLYITAN 1 - Visible Passes

Search period start: 16 July 2018 00:00
Search period end: 26 July 2018 00:00
Orbit: 591 x 614 km, 97.9° (Epoch: 16 July)

Date Brightness Start Highest point End Pass type
(mag) Time Alt. Az. Time Alt. Az. Time Alt. Az.
16 Jul ? 00:53:19 10° NE 00:53:35 11° NE 00:53:35 11° NE visible
16 Jul ? 02:28:45 10° NNW 02:30:23 19° NNW 02:30:23 19° NNW visible
17 Jul ? 01:04:53 10° NE 01:05:38 14° NE 01:05:38 14° NE visible
17 Jul ? 02:41:06 10° NNW 02:42:26 16° NW 02:42:26 16° NW visible
18 Jul ? 01:16:35 10° NNE 01:17:41 17° NE 01:17:41 17° NE visible
18 Jul ? 02:53:41 10° NW 02:54:29 12° NW 02:54:29 12° NW visible
19 Jul ? 01:28:23 10° NNE 01:29:43 20° NNE 01:29:43 20° NNE visible
20 Jul ? 01:40:17 10° NNE 01:41:46 21° NNE 01:41:46 21° NNE visible
21 Jul ? 01:52:14 10° N 01:53:48 22° N 01:53:48 22° N visible
22 Jul ? 02:04:17 10° N 02:05:50 21° N 02:05:50 21° N visible
23 Jul ? 02:16:24 10° N 02:17:53 20° NNW 02:17:53 20° NNW visible
24 Jul ? 02:28:37 10° NNW 02:29:55 17° NNW 02:29:55 17° NNW visible
25 Jul ? 01:04:47 10° NE 01:05:08 12° NE 01:05:08 12° NE visible
25 Jul ? 02:40:57 10° NNW 02:41:57 14° NNW 02:41:57 14° NNW visible
